Starlink 11081

operational
NORAD ID: 60405 Int'l Des: 2024-141 Owner: SPXS Country: US Constellation: starlink
LEOCIRCULAR

Starlink 11081について

説明を読み込み中...

リアルタイム位置

3D地球を読み込み中...

次回通過

高度履歴

Altitude vs Time

uPlot chart will show altitude changes over time

軌道要素

1 60405U 24141H 26034.58862821 -.00003487 00000-0 -23969-4 0 9999
2 60405 53.1585 254.6069 0000411 110.9628 249.1434 15.69686717 86332
Epoch: Feb 3, 2026 • Age: 27 hours

現在のステータス

高度 365.9 km
速度 7.69 km/s
衛星直下点 -21.61°S, 56.63°E
打ち上げ日 Aug 10, 2024
運用期間 1.4 years
タイプ internet

技術仕様

分類 Payload
質量 960.00 kg
乾燥質量 910.00 kg
総質量 960.00 kg
長さ 0.30 m
直径 4.10 m
スパン 29.00 m
形状 Box + pan
製造者 SPXS
バスタイプ Starlink V2MD
フェーズステータス In Orbit
所有者/国 SPXS/US

大規模コンステレーション

Loading constellations...